TIME,DELAY(SENSOR),PRES,OXYGEN,RAWTEMP,T(OPTODE),TCPHASE,FLUOR,BETA(BETA700),BETA(BETA412),BETA(BETA440),CDOM,C(CSC),ED(ED412.20),ED(ED444.00),ED(ED489.60),ED(ED554.30),LU(LU412.10),LU(LU443.90),LU(LU489.70),LU(LU554.70),COMP,TILTX,TILTY,CHECK
1372047642,5808,856.1300048828125000,31.0313396453857420,561.5615234375000000,4.4374918937683105,56.9381904602050800,55,98,100,78,79,15615,0,0,0,0,2147119488,2147771584,2147564324,2147565888,1836,2,13,40398
1372051238,5809,922.6199951171875000,35.2470893859863300,569.3906860351562000,4.1944918632507320,56.3388214111328100,55,98,100,76,80,15616,0,0,0,0,2147120082,2147771968,2147570185,2147565997,2801,2,13,6393
1372054838,5808,935.2700195312500000,31.8809604644775400,571.0714111328125000,4.1422629356384280,56.8951683044433600,55,98,100,78,79,15615,0,0,0,0,2147121398,2147769545,2147565805,2147570340,521,2,13,36476
1372058438,5809,960.7999877929688000,27.1377506256103500,573.0184936523438000,4.0817198753356930,57.7007598876953100,56,96,100,78,80,15615,0,0,0,0,2147121298,2147776036,2147571803,2147566829,3530,2,13,42515
1372062038,5810,962.8499755859375000,28.0859107971191400,573.0369262695312000,4.0811481475830080,57.5451507568359400,55,95,99,77,79,15613,0,0,0,0,2147120493,2147769261,2147569865,2147567497,72,3,13,20672
1372065638,5808,965.0499877929688000,27.1939105987548830,572.8991088867188000,4.0854339599609375,57.6946182250976560,55,96,99,78,79,15615,0,0,0,0,2147119250,2147771264,2147564973,2147567908,164,2,13,57934
1372069238,5810,997.1699829101562000,31.8747196197509770,575.0277709960938000,4.0192108154296875,56.9345207214355500,55,98,99,78,80,15613,0,0,0,0,2147120557,2147774061,2147569856,2147564800,21,2,13,45132
1372072838,5809,995.8499755859375000,35.0931396484375000,574.9171752929688000,4.0226540565490720,56.4144096374511700,56,98,101,78,80,15614,0,0,0,0,2147120969,2147771803,2147565604,2147569270,231,2,13,43811
1372076438,5809,1001.6699829101562000,32.8655815124511700,574.4392700195312000,4.0375227928161620,56.7620506286621100,55,96,99,78,79,15608,0,0,0,0,2147118738,2147771209,2147573357,2147567369,769,3,13,55818
1372080038,5811,999.0800170898438000,31.5593299865722660,574.8958129882812000,4.0233211517333980,56.9770202636718750,54,97,100,78,79,15611,0,0,0,0,2147123154,2147766061,2147567104,2147567579,57,2,13,45940
1372083638,5812,1002.0200195312500000,32.3004684448242200,575.1541137695312000,4.0152821540832520,56.8650398254394500,54,98,99,77,79,15613,0,0,0,0,2147119899,2147771291,2147564772,2147565888,3524,2,13,58808
1372087238,5811,1007.7100219726562000,31.5467205047607420,573.9387207031250000,4.0530991554260250,56.9727210998535160,55,96,99,79,79,15612,0,0,0,0,2147118893,2147768082,2147566784,2147565275,244,2,13,10492
1372090838,5809,1007.7100219726562000,30.1528701782226560,573.9530029296875000,4.0526537895202640,57.2056388854980500,56,97,100,77,79,15608,0,0,0,0,2147121289,2147774656,2147566244,2147568146,177,2,13,48910
1372094438,5811,1006.6400146484375000,27.0794391632080080,574.5598754882812000,4.0337700843811035,57.7235488891601560,56,97,98,78,79,15610,0,0,0,0,2147120128,2147770057,2147568685,2147565997,166,2,13,4102
1372098038,5808,1006.0000000000000000,30.0132598876953120,574.8333129882812000,4.0252628326416020,57.2327995300293000,55,96,100,77,80,15599,0,0,0,0,2147120576,2147770532,2147569252,2147568603,3581,2,13,13306
1372101638,5810,1005.9199829101562000,26.4839496612548830,574.6796875000000000,4.0300450325012210,57.8342399597168000,56,95,100,76,79,15600,0,0,0,0,2147119707,2147770331,2147562413,2147567698,32,2,13,36889
1372105238,5813,1010.2600097656250000,34.4083404541015600,574.8964843750000000,4.0232977867126465,56.5267601013183600,55,96,98,78,80,15602,0,0,0,0,2147121837,2147770450,2147568082,2147565659,56,2,13,8556
1372108838,5809,1000.4799804687500000,34.0848884582519500,575.4257812500000000,4.0068259239196780,56.5781288146972660,54,97,100,77,80,15601,0,0,0,0,2147125604,2147766171,2147568521,2147564617,112,3,13,65237
1372112438,5812,1003.1900024414062000,29.8027305603027340,576.8519897460938000,3.9624309539794920,57.2906417846679700,55,97,100,77,81,15601,0,0,0,0,2147123328,2147768429,2147572507,2147567286,67,3,13,19166
1372116038,5813,1004.4500122070312000,33.0134010314941400,575.8880004882812000,3.9924390316009520,56.7537193298339840,54,97,100,77,80,15601,0,0,0,0,2147122038,2147772534,2147568237,2147565741,3302,2,13,1250
1372119638,5808,1003.8300170898438000,34.5221481323242200,575.4769897460938000,4.0052318572998050,56.5145988464355500,55,95,99,77,80,15601,0,0,0,0,2147122459,2147766528,2147570624,2147567040,636,2,13,42011
1372123238,5811,1007.8400268554688000,33.9971809387207000,575.3610839843750000,4.0088372230529785,56.5923309326171900,55,98,100,78,80,15600,0,0,0,0,2147120621,2147771538,2147572352,2147568914,711,2,13,14905
1372126838,5811,1004.5499877929688000,34.2286911010742200,575.6251220703125000,4.0006217956542970,56.5587501525878900,55,96,100,77,80,15600,0,0,0,0,2147121554,2147771739,2147566573,2147565165,24,3,13,45171
1372130438,5812,1012.9099731445312000,37.1334190368652340,576.4010009765625000,3.9764730930328370,56.1193885803222660,55,98,100,78,80,15599,0,0,0,0,2147120740,2147773366,2147568457,2147568384,3278,2,13,51288
1372134038,5810,1008.5999755859375000,31.6780395507812500,575.5958862304688000,4.0015320777893070,56.9673614501953100,56,98,99,76,80,15598,0,0,0,0,2147118317,2147769179,2147567981,2147567899,133,3,13,46216
1372137638,5808,1009.0499877929688000,34.3867111206054700,575.3663940429688000,4.0086750984191895,56.5350685119628900,55,97,99,78,81,15598,0,0,0,0,2147122203,2147765092,2147567204,2147569325,191,3,13,46520
1372141238,5810,1005.3599853515625000,28.6133308410644530,576.2105712890625000,3.9824008941650390,57.4843406677246100,56,98,100,77,80,15598,0,0,0,0,2147119286,2147762797,2147563648,2147569133,3250,2,13,2892
1372144838,5810,1006.0700073242188000,32.1524810791015600,577.2495117187500000,3.9500539302825928,56.9045104980468750,54,96,104,77,80,15599,0,0,0,0,2147120228,2147773129,2147568557,2147567341,3488,2,13,20814
1372148438,5807,1008.1799926757812000,37.0770988464355500,576.4962768554688000,3.9735069274902344,56.1296195983886700,55,96,99,76,79,15597,0,0,0,0,2147122194,2147769938,2147567140,2147566464,153,2,13,46961
1372152038,5809,1010.6699829101562000,35.7647018432617200,576.8131713867188000,3.9636399745941160,56.3319816589355500,55,98,98,78,80,15598,0,0,0,0,2147119460,2147764498,2147572096,2147569874,302,2,13,21384
1372155638,5810,1011.4799804687500000,36.4080390930175800,576.4293823242188000,3.9755880832672120,56.2270889282226560,55,96,101,77,81,15597,0,0,0,0,2147120512,2147763428,2147573028,2147569024,183,2,13,51151
1372159238,5809,1011.2100219726562000,33.0428886413574200,576.2044067382812000,3.9825921058654785,56.7502403259277340,55,95,99,77,81,15597,0,0,0,0,2147121883,2147771501,2147572864,2147567780,3467,2,13,29679
1372162838,5810,1012.0000000000000000,34.7028388977050800,575.6760864257812000,3.9990370273590090,56.4875411987304700,55,97,100,78,80,15597,0,0,0,0,2147121024,2147765586,2147572982,2147569526,3470,2,13,53986
1372166438,5808,1016.7800292968750000,35.6963882446289060,575.2814941406250000,4.0113158226013180,56.3302383422851560,54,96,99,79,79,15594,0,0,0,0,2147119296,2147765741,2147570560,2147566253,196,2,13,45460
1372170038,5808,1011.3699951171875000,36.3816909790039060,574.8283081054688000,4.0254192352294920,56.2164115905761700,54,98,100,78,79,15596,0,0,0,0,2147118848,2147764726,2147571355,2147567945,406,2,13,19693
1372173638,5810,1016.1099853515625000,30.1207008361816400,575.4733886718750000,4.0053420066833500,57.2195091247558600,54,99,99,78,80,15594,0,0,0,0,2147120813,2147767250,2147567314,2147567725,83,3,13,46374
1372177238,5808,1018.9099731445312000,35.4202919006347660,574.8513793945312000,4.0247001647949220,56.3609085083007800,55,101,100,79,80,15595,0,0,0,0,2147119835,2147764525,2147571830,2147568694,394,2,13,16810
1372180838,5809,1016.9799804687500000,31.9072093963623050,574.9016723632812000,4.0231380462646480,56.9187507629394500,55,95,99,78,79,15593,0,0,0,0,2147122002,2147771940,2147567780,2147568173,3474,2,13,58242
1372184438,5808,1016.0900268554688000,31.2225208282470700,574.7039794921875000,4.0292887687683105,57.0359497070312500,56,96,100,77,80,15594,0,0,0,0,2147119533,2147767561,2147566811,2147570578,23,3,13,12116
1372188038,5811,1013.1900024414062000,32.4686088562011700,575.7141113281250000,3.9978520870208740,56.8460083007812500,56,98,101,76,80,15596,0,0,0,0,2147120393,2147765540,2147566994,2147569517,393,3,13,62452
1372191355,5811,1016.0499877929688000,30.8246803283691400,575.6273803710938000,4.0005531311035160,57.1112899780273440,54,96,99,77,79,15592,0,0,0,0,2147121115,2147765549,2147571190,2147566372,3497,2,13,64894
